{"data":{"norad_id":59780,"epoch":"2026-09-22T21:58:24.131712Z","epoch_age_seconds":63941,"freshness":"FRESH","line1":"1 59780U 24092H   26265.91555708  .00000082  00000+0  47494-4 0  9998","line2":"2 59780  98.6805  24.8964 0011143 283.3799  76.6142 14.31877585122887","mean_motion":14.31877585,"eccentricity":0.0011143,"inclination_deg":98.6805,"raan_deg":24.8964,"arg_perigee_deg":283.3799,"mean_anomaly_deg":76.6142,"bstar":4.7494e-5,"rev_number":12288,"period_min":100.56725624349,"perigee_km":777.47927945225,"apogee_km":793.44407546484,"semimajor_km":7163.5986774585,"source":"CELESTRAK","updated_at":"2026-09-23T09:00:19.581406Z"}}